Flag for Madagascar Weather past 2 weeks in Toamasina, Madagascar

Now
77 °F

Scattered clouds.


Feels Like: 78 °F
Forecast: 77 / 89 °F
Wind: No wind

Location: Tamatave

Current Time: Dec 21, 2014 at 6:49:45 AM

Latest Report: Dec 21, 2014 at 6:00 AM


Visibility: N/A

Pressure: 29.83 "Hg

Humidity: 94%

Dew point: 75 °F

Location of ToamasinaLocation

Historic Weather in Toamasina — Graph

°F

Toamasina temperature yesterday

Maximum temperature yesterday: 90 °F (at 10:00 AM)
Minimum temperature yesterday: 77 °F (at 3:00 AM)
Average temperature yesterday: 83 °F

Past Weeks' High & Low Weather Summary

 TemperatureHumidityPressure
High90 °F (Dec 20, 10:00 AM)100% (Dec 6, 5:00 AM)30.01 "Hg (Dec 6, 5:00 AM)
Low73 °F (Dec 9, 2:00 AM)62% (Dec 9, 4:00 PM)29.74 "Hg (Dec 18, 3:00 PM)
Average81 °F83%29.91 "Hg
* Reported Dec 6 5:00 AM — Dec 21 5:00 AM, Toamasina, Weather by CustomWeather, © 2014

Note: Actual official high and low records may vary slightly from our data, if they occured in-between our weather recording intervals... More about our weather records

Advertising

Toamasina weather history for previous 24 hours

 ConditionsComfort  
Time TempWeatherWind HumidityBarometerVisibility
5:00 AM
Dec 21
77 °FPassing clouds.No wind94%29.83 "HgN/A
3:00 AM77 °FPassing clouds.No wind94%29.83 "HgN/A
2:00 AM77 °FPassing clouds.No wind94%29.83 "HgN/A
1:00 AM77 °FScattered showers. Partly cloudy.5 mph94%29.86 "Hg5 mi
12:00 AM77 °FLight rain. Partly cloudy.5 mph94%29.86 "Hg5 mi
11:00 PM
Dec 20
79 °FScattered showers. Partly cloudy.No wind94%29.86 "HgN/A
10:00 PM81 °FPassing clouds.No wind89%29.86 "HgN/A
8:00 PM82 °FPassing clouds.No wind89%29.86 "HgN/A
7:00 PM82 °FPassing clouds.No wind89%29.86 "HgN/A
6:00 PM84 °FBroken clouds.No wind79%29.83 "HgN/A
5:00 PM86 °FThunderstorms. Scattered clouds.7 mph75%29.80 "HgN/A
4:00 PM86 °FThundershowers. Scattered clouds.5 mph75%29.80 "HgN/A
3:00 PM88 °FThundershowers. Scattered clouds.12 mph70%29.80 "HgN/A
2:00 PM90 °FScattered clouds.12 mph67%29.80 "HgN/A
1:00 PM90 °FScattered clouds.12 mph67%29.83 "HgN/A
12:00 PM90 °FScattered clouds.12 mph75%29.86 "HgN/A
11:00 AM88 °FScattered clouds.7 mph70%29.89 "HgN/A
10:00 AM90 °FBroken clouds.7 mph67%29.89 "HgN/A
9:00 AM88 °FPartly sunny.7 mph66%29.89 "HgN/A
8:00 AM86 °FPartly sunny.7 mph70%29.89 "HgN/A
7:00 AM81 °FPassing clouds.2 mph89%29.89 "HgN/A
6:00 AM77 °FPassing clouds.2 mph94%29.86 "HgN/A
Weather by CustomWeather, © 2014

See weather overviewHow to use our weather pages